Torna al catalogo

STARLINK-5760

AttivoComunicazioniVLEO
NORAD 55591·PAYLOAD·🇺🇸 United States

Lanciato Feb 12, 2023 da Cape Canaveral Space Force Station

Loading…

Prossimi Passaggi (prossime 24 ore)

TLE

AggiornatoSource: CelesTrak SupGP

Epoca: Sep 15, 2026, 02:08 UTC

1 55591C 23020Y   26258.08937500 -.00021063  00000+0 -76281-3 0  2585
2 55591  43.0046  15.6880 0002258 276.4870 229.0519 15.27590470    12

Traccia STARLINK-5760 in tempo reale con AllMySat

Download on the App Store